Location: Dallas
(32.7833°N, 96.8000°W)
Time: 13:52:33
(UTC-06:00)

Envisat - Pass Details

Date: 13 December 2021
Orbit: 764 x 766 km, 98.2° (Epoch: 28 January)

Event Time Altitude Azimuth Distance (km) Brightness Sun altitude
Rises 05:40:33 0° 7° (N) 3,235 6.2 -20.5°
Reaches altitude 10° 05:42:53 10° 3° (N) 2,305 5.3 -20.0°
Maximum altitude 05:47:51 57° 286° (WNW) 897 3.0 -19.0°
Drops below altitude 10° 05:52:48 10° 208° (SSW) 2,291 5.3 -18.0°
Sets 05:55:07 0° 204° (SSW) 3,213 6.2 -17.6°
